CW9688 Weather Reports


time (UTC)temp
F
wind
direction
speed
knots
gust
knots
rain 1hr
in
rain 24hr
in
rain mn
in
humidity
%
barometer
mb
20260901054304 63 259 0.0 1.7 0.00 0.08 0.08 81 1014.3
20260901053804 63 259 0.0 1.7 0.00 0.08 0.08 81 1014.3
20260901053304 63 259 0.9 2.6 0.00 0.08 0.08 82 1014.3
20260901052804 63 259 0.0 1.7 0.00 0.08 0.08 81 1014.3
20260901051804 63 259 1.7 2.6 0.00 0.08 0.08 81 1014.3
20260901051304 63 250 0.9 2.6 0.00 0.08 0.08 81 1014.3
20260901050804 63 263 1.7 4.3 0.00 0.08 0.08 81 1014.3
20260901050304 63 302 0.9 4.3 0.00 0.08 0.08 80 1014.3
20260901045306 63 270 2.6 5.2 0.00 0.08 0.08 79 1014.3
20260901044304 64 311 2.6 6.1 0.00 0.08 0.08 77 1014.3
20260901043804 64 309 1.7 4.3 0.00 0.08 0.08 77 1014.3
20260901042804 65 248 1.7 4.3 0.00 0.08 0.08 74 1014.3
20260901040804 64 188 2.6 6.1 0.01 0.08 0.08 77 1014.3
20260901035803 64 27 3.5 6.1 0.02 0.08 0.08 81 1014.3
20260901035305 63 29 1.7 2.6 0.02 0.08 0.08 82 1014.3
20260901034804 63 353 1.7 4.3 0.02 0.08 0.08 83 1014.3
20260901033804 63 288 2.6 5.2 0.02 0.08 0.08 81 1014.3
20260901032803 63 245 5.2 8.7 0.02 0.08 0.08 81 1014.3
20260901031805 64 257 4.3 7.0 0.01 0.07 0.07 79 1014.3
20260901031304 64 238 3.5 6.1 0.01 0.07 0.07 80 1014.3
20260901024804 69 218 7.0 13.0 0.00 0.06 0.06 64 1014.3
20260901024304 69 227 6.1 10.4 0.00 0.06 0.06 67 1014.3
20260901023303 68 225 3.5 8.7 0.00 0.06 0.06 69 1014.3
20260901022306 67 230 2.6 5.2 0.00 0.06 0.06 75 1014.3
20260901021303 67 0 1.7 2.6 0.01 0.06 0.06 73 1014.3
20260901020804 67 17 1.7 2.6 0.03 0.06 0.06 72 1014.3
20260901015803 67 353 2.6 8.7 0.06 0.06 0.06 73 1014.3
20260901014804 66 326 5.2 8.7 0.06 0.06 0.06 76 1014.3
20260901012804 64 321 0.9 2.6 0.06 0.06 0.06 82 1014.3
20260901011304 67 282 5.2 13.0 0.05 0.05 0.05 69 1014.3
20260901010304 73 296 4.3 20.0 0.01 0.01 0.01 54 1013.5
20260901005805 78 260 6.1 18.2 0.00 0.00 0.00 42 1013.5
20260901002803 82 90 3.5 10.4 0.00 0.00 0.00 31 1013.5
20260901002305 82 93 3.5 7.8 0.00 0.00 0.00 31 1013.5
20260901001304 82 80 4.3 11.3 0.00 0.00 0.00 30 1013.5
20260831234804 83 118 4.3 7.0 0.00 0.00 0.00 29 1013.5
20260831233804 84 124 4.3 7.0 0.00 0.00 0.00 29 1013.5
20260831231804 86 146 6.1 10.4 0.00 0.00 0.00 27 1013.5
20260831230303 84 112 3.5 7.8 0.00 0.00 0.00 27 1013.5
20260831225306 86 126 4.3 7.8 0.00 0.00 0.00 28 1013.5
20260831224804 85 156 1.7 10.4 0.00 0.00 0.00 31 1013.5
20260831223304 84 102 6.1 10.4 0.00 0.00 0.00 29 1013.5
20260831222306 84 79 6.1 11.3 0.00 0.00 0.00 29 1013.5
20260831220804 84 42 2.6 7.8 0.00 0.00 0.00 31 1013.5
20260831215804 83 147 1.7 5.2 0.00 0.00 0.00 30 1013.5
20260831215306 83 46 3.5 6.1 0.00 0.00 0.00 30 1013.5
20260831213804 82 35 4.3 8.7 0.00 0.00 0.00 33 1013.5
20260831213304 82 37 2.6 5.2 0.00 0.00 0.00 31 1013.5
20260831212306 82 59 1.7 6.1 0.00 0.00 0.00 32 1013.5
20260831211304 82 107 2.6 5.2 0.00 0.00 0.00 34 1013.5
20260831210804 82 55 3.5 6.1 0.00 0.00 0.00 34 1013.5
20260831210304 82 50 3.5 6.1 0.00 0.00 0.00 37 1013.5
20260831205803 81 59 3.5 7.0 0.00 0.00 0.00 35 1013.5
20260831205305 81 37 3.5 5.2 0.00 0.00 0.00 36 1013.5
20260831204804 81 44 3.5 5.2 0.00 0.00 0.00 34 1013.5
20260831201804 81 125 2.6 6.1 0.00 0.02 0.00 34 1013.5
20260831200303 81 75 2.6 6.1 0.00 0.02 0.00 35 1013.5
20260831195804 81 131 2.6 6.1 0.00 0.02 0.00 34 1013.5
20260831195306 81 59 1.7 5.2 0.00 0.02 0.00 36 1013.5
20260831194804 81 88 0.9 4.3 0.00 0.02 0.00 36 1013.5
20260831193803 80 140 0.9 2.6 0.00 0.02 0.00 33 1013.5
20260831192803 80 142 1.7 4.3 0.00 0.02 0.00 36 1013.5
20260831191304 79 189 0.0 2.6 0.00 0.02 0.00 36 1013.5
20260831185804 79 100 1.7 5.2 0.00 0.02 0.00 37 1013.5
20260831184804 79 126 0.0 1.7 0.00 0.02 0.00 37 1013.5
20260831184304 79 304 0.0 0.9 0.00 0.02 0.00 37 1013.5
20260831183304 79 201 0.0 0.9 0.00 0.02 0.00 35 1013.5
20260831182803 78 201 0.9 1.7 0.00 0.02 0.00 35 1013.5
20260831181804 78 150 0.0 2.6 0.00 0.02 0.00 36 1013.5
20260831180303 77 111 0.9 2.6 0.00 0.02 0.00 39 1013.5
20260831175803 77 147 0.0 0.9 0.00 0.02 0.00 39 1013.5
20260831174803 76 83 0.0 2.6 0.00 0.02 0.00 42 1013.5
20260831174304 76 112 0.9 4.3 0.00 0.02 0.00 38 1013.5
20260831173803 77 140 0.9 2.6 0.00 0.02 0.00 41 1013.5
20260831171803 76 95 2.6 5.2 0.00 0.02 0.00 43 1013.5
20260831164304 77 105 4.3 6.1 0.00 0.02 0.00 47 1013.5
20260831163804 77 78 3.5 6.1 0.00 0.02 0.00 42 1013.5
20260831163304 77 132 0.9 5.2 0.00 0.02 0.00 39 1013.5
20260831162803 76 34 2.6 4.3 0.00 0.02 0.00 40 1013.5
20260831161804 77 314 0.9 2.6 0.00 0.02 0.00 43 1013.5
20260831161304 77 262 0.0 2.6 0.00 0.02 0.00 38 1013.5
20260831160804 77 263 2.6 2.6 0.00 0.02 0.00 38 1013.5
20260831154804 75 315 0.9 2.6 0.00 0.02 0.00 48 1013.5
20260831154304 74 301 0.9 2.6 0.00 0.02 0.00 47 1013.5
20260831153804 74 41 1.7 2.6 0.00 0.02 0.00 48 1013.5
20260831152804 74 355 1.7 2.6 0.00 0.02 0.00 50 1013.5
20260831151805 74 92 0.9 1.7 0.00 0.02 0.00 53 1013.5
20260831151304 74 132 0.0 2.6 0.00 0.02 0.00 46 1013.5
20260831150804 73 192 1.7 2.6 0.00 0.02 0.00 47 1013.5
20260831145803 72 231 0.9 2.6 0.00 0.02 0.00 52 1013.5
20260831144304 71 194 1.7 2.6 0.00 0.02 0.00 54 1013.5
20260831143305 69 210 1.7 2.6 0.00 0.02 0.00 57 1013.5
20260831142805 69 356 0.0 0.9 0.00 0.02 0.00 60 1013.5
20260831141805 68 355 0.9 1.7 0.00 0.02 0.00 60 1013.5
20260831141305 68 355 1.7 2.6 0.00 0.02 0.00 62 1013.5
20260831135805 67 207 0.0 1.7 0.00 0.02 0.00 62 1013.5
20260831135306 67 207 1.7 2.6 0.00 0.02 0.00 62 1013.5
20260831134804 66 202 1.7 2.6 0.00 0.02 0.00 62 1013.5
20260831134305 66 166 0.0 1.7 0.00 0.02 0.00 63 1013.5
20260831133804 66 203 1.7 2.6 0.00 0.02 0.00 64 1013.5
20260831132306 64 162 1.7 1.7 0.00 0.02 0.00 70 1013.5
20260831130805 62 162 0.0 0.9 0.00 0.02 0.00 71 1013.5
20260831125306 61 221 0.9 1.7 0.00 0.02 0.00 72 1013.5
20260831124305 61 221 0.0 1.7 0.00 0.02 0.00 72 1013.5
20260831123805 61 221 0.9 1.7 0.00 0.02 0.00 72 1013.5
20260831121305 61 5 0.0 0.0 0.00 0.02 0.00 72 1013.5
20260831120306 61 5 0.0 2.6 0.00 0.02 0.00 72 1013.5
20260831115804 61 336 0.0 1.7 0.00 0.02 0.00 72 1013.5
20260831115306 62 336 1.7 2.6 0.00 0.02 0.00 71 1013.5
20260831114804 62 225 0.9 2.6 0.00 0.02 0.00 69 1013.5
20260831114305 62 225 1.7 2.6 0.00 0.02 0.00 70 1013.5
20260831112307 63 225 0.0 1.7 0.00 0.02 0.00 67 1013.5
20260831111804 63 225 0.9 1.7 0.00 0.02 0.00 66 1013.5
20260831111305 63 225 0.9 1.7 0.00 0.02 0.00 65 1013.5
20260831110305 64 207 0.9 2.6 0.00 0.02 0.00 64 1013.5
20260831105804 64 205 1.7 4.3 0.00 0.02 0.00 64 1013.5
20260831104805 64 228 1.7 4.3 0.00 0.02 0.00 63 1013.5
20260831103305 64 206 0.9 2.6 0.00 0.02 0.00 63 1013.5
20260831101804 62 218 0.9 2.6 0.00 0.02 0.00 69 1013.5
20260831101306 62 220 0.9 2.6 0.00 0.02 0.00 69 1013.5
20260831100805 63 202 1.7 2.6 0.00 0.02 0.00 69 1013.5
20260831100305 62 199 0.9 4.3 0.00 0.02 0.00 69 1013.5
20260831094805 62 208 0.0 0.9 0.00 0.02 0.00 72 1013.5
20260831093305 63 198 0.9 2.6 0.00 0.02 0.00 71 1013.5
20260831092804 63 198 0.9 1.7 0.00 0.02 0.00 71 1013.5
20260831092306 62 198 0.9 1.7 0.00 0.02 0.00 70 1013.5
20260831090304 63 146 0.9 1.7 0.00 0.02 0.00 69 1013.5
20260831085306 63 146 0.0 0.9 0.00 0.02 0.00 68 1013.5
20260831084304 63 146 0.0 1.7 0.00 0.02 0.00 67 1013.5
20260831083804 63 146 0.0 1.7 0.00 0.02 0.00 67 1013.5
20260831082306 62 146 0.0 0.0 0.00 0.02 0.00 69 1013.5
20260831081305 63 146 0.0 1.7 0.00 0.02 0.00 65 1013.5
20260831080305 63 146 0.9 1.7 0.00 0.02 0.00 64 1013.5
20260831073305 64 221 0.9 1.7 0.00 0.02 0.00 61 1013.5
20260831072805 64 191 0.9 0.9 0.00 0.02 0.00 61 1013.5
20260831071805 65 191 0.0 0.9 0.00 0.02 0.00 58 1013.5
20260831071306 65 191 0.9 1.7 0.00 0.02 0.00 58 1013.5
20260831070804 65 191 0.9 1.7 0.00 0.02 0.00 57 1013.5
20260831070305 65 191 0.9 1.7 0.00 0.02 0.00 56 1013.5
20260831065805 65 311 0.9 1.7 0.00 0.02 0.00 56 1013.5
20260831064305 66 263 0.9 2.6 0.00 0.02 0.00 56 1013.5
20260831062306 68 275 0.9 2.6 0.00 0.02 0.00 51 1013.5
20260831061805 69 192 0.9 2.6 0.00 0.02 0.00 49 1013.5
20260831054805 71 238 2.6 6.1 0.00 0.02 0.02 45 1013.5